This demonstration page uses our WeatherBlox Daily Observations layout. Learn more.

Left ArrowRight Arrow

47.50024, -111.30081

Hourly Observations for April 22, 2019

Temp ( °F °C ) Dew Point ( °F °C ) Humidity (%) Winds ( mph kmh ) Pressure ( in mb ) Visibility ( mi km ) Precip ( " mm )
12:53 am 00:53 Clear 39 3.9 36 2.2 89 89 S 9 15 30.28 1025 10 16 0.00 0.00
1:53 am 01:53 Clear 41 5 34 1.1 76 76 S 15 24 30.25 1025 10 16 0.00 0.00
2:53 am 02:53 Clear 40 4.4 34 1.1 79 79 S 12 19 30.24 1024 10 16 0.00 0.00
3:53 am 03:53 Clear 40 4.4 33 0.6 77 77 S 13 20 30.24 1024 10 16 0.00 0.00
4:53 am 04:53 Clear 38 3.3 32 0 79 79 S 10 17 30.25 1024 10 16 0.00 0.00
5:53 am 05:53 Clear 38 3.3 32 0 79 79 SSW 12 19 30.23 1024 10 16 0.00 0.00
6:53 am 06:53 Sunny 38 3.3 32 0 79 79 SSW 12 19 30.24 1024 10 16 0.00 0.00
7:53 am 07:53 Sunny 44 6.7 34 1.1 68 68 SSW 14 22 30.24 1024 10 16 0.00 0.00
8:53 am 08:53 Sunny 48 8.9 35 1.7 61 61 SSW 15 24 30.23 1024 10 16 0.00 0.00
9:53 am 09:53 Sunny 52 11.1 35 1.7 53 53 SSW 15 24 30.22 1024 10 16 0.00 0.00
10:53 am 10:53 Sunny 56 13.3 34 1.1 44 44 SW 13 20 30.20 1023 10 16 0.00 0.00
11:53 am 11:53 Sunny 60 15.6 34 1.1 38 38 WSW 14 22 30.19 1022 10 16 0.00 0.00
12:53 pm 12:53 Sunny 61 16.1 33 0.6 35 35 SSW 14 22 30.15 1021 10 16 0.00 0.00
1:53 pm 13:53 Sunny 62 16.7 32 0 32 32 SW 16 26 30.11 1020 10 16 0.00 0.00
2:53 pm 14:53 Sunny 64 17.8 36 2.2 35 35 SW 21 33 30.08 1019 10 16 0.00 0.00
3:53 pm 15:53 Sunny 64 17.8 35 1.7 34 34 SSW 18 30 30.05 1018 10 16 0.00 0.00
4:53 pm 16:53 Sunny 64 17.8 35 1.7 34 34 SW 21 33 30.03 1017 10 16 0.00 0.00
5:53 pm 17:53 Sunny 63 17.2 34 1.1 34 34 WSW 21 33 30.01 1016 10 16 0.00 0.00
6:53 pm 18:53 Sunny 62 16.7 34 1.1 35 35 SW 17 28 30.01 1016 10 16 0.00 0.00
7:53 pm 19:53 Sunny 57 13.9 33 0.6 41 41 SW 14 22 29.99 1016 10 16 0.00 0.00
8:53 pm 20:53 Clear 54 12.2 34 1.1 47 47 SW 13 20 29.98 1015 10 16 0.00 0.00
9:53 pm 21:53 Clear 53 11.7 35 1.7 51 51 SW 15 24 29.98 1015 10 16 0.00 0.00
10:53 pm 22:53 Clear 54 12.2 34 1.1 47 47 SW 16 26 29.95 1014 10 16 0.00 0.00
11:53 pm 23:53 Clear 53 11.7 34 1.1 48 48 SW 16 26 29.93 1014 10 16 0.00 0.00

Powered by AerisWeather